This demonstration page uses our WeatherBlox Daily Observations layout. Learn more.

Left ArrowRight Arrow

Hourly Observations for April 9, 2021

Temp ( °F °C ) Dew Point ( °F °C ) Humidity (%) Winds ( mph kmh ) Pressure ( in mb ) Visibility ( mi km ) Precip ( " mm )
12:53 am 00:53 Clear 60 15.6 56 13.3 86 86 Calm 29.88 1012 10 16 0.00 0.00
1:53 am 01:53 Clear 60 15.6 56 13.3 86 86 Calm 29.88 1012 10 16 0.00 0.00
2:53 am 02:53 Clear 64 17.8 59 15 84 84 SW 3 6 29.88 1012 10 16 0.00 0.00
3:53 am 03:53 Clear 65 18.3 61 16.1 87 87 SSW 5 7 29.88 1012 10 16 0.00 0.00
4:31 am 04:31 Mostly Cloudy 64 17.8 61 16.1 90 90 Calm 29.90 1012 10 16 0.00 0.00
4:53 am 04:53 Mostly Cloudy 65 18.3 61 16.1 87 87 SW 3 6 29.89 1012 10 16 0.00 0.00
5:53 am 05:53 Partly Cloudy 64 17.8 61 16.1 90 90 SSW 5 7 29.90 1013 10 16 0.00 0.00
6:06 am 06:06 Mostly Cloudy 64 17.8 61 16.1 90 90 Calm 29.92 1013 10 16 0.00 0.00
6:40 am 06:40 Mostly Cloudy 65 18.3 61 16.1 87 87 SSW 5 7 29.92 1013 10 16 0.00 0.00
6:53 am 06:53 Mostly Cloudy 64 17.8 61 16.1 90 90 SSW 7 11 29.92 1013 10 16 0.00 0.00
7:09 am 07:09 Partly Cloudy 64 17.8 61 16.1 90 90 SSW 5 7 29.94 1014 10 16 0.00 0.00
7:19 am 07:19 Mostly Cloudy 64 17.8 61 16.1 90 90 SSW 5 7 29.94 1014 10 16 0.00 0.00
7:48 am 07:48 Cloudy 64 18 61 16 88 88 S 3 6 29.95 1014 9 14 0.00 0.00
7:53 am 07:53 Cloudy 64 17.8 61 16.1 90 90 Calm 29.94 1014 9 14 0.00 0.00
8:25 am 08:25 Partly Cloudy 64 17.8 61 16.1 90 90 SSW 5 7 29.97 1015 10 16 0.00 0.00
8:53 am 08:53 Partly Cloudy 65 18.3 61 16.1 87 87 S 6 9 29.96 1014 10 16 0.00 0.00
9:00 am 09:00 Mostly Cloudy 65 18.3 61 16.1 87 87 S 6 9 29.96 1015 10 16 0.00 0.00
9:12 am 09:12 Mostly Cloudy 65 18.3 61 16.1 87 87 SW 5 7 29.96 1015 10 16 0.00 0.00
9:41 am 09:41 Mostly Cloudy 67 19.4 62 16.7 84 84 SSE 5 7 29.95 1014 10 16 0.00 0.00
9:53 am 09:53 Mostly Sunny 68 20 62 16.7 81 81 S 3 6 29.95 1014 10 16 0.00 0.00
10:53 am 10:53 Sunny 71 21.7 62 16.7 73 73 SSW 3 6 29.95 1014 10 16 0.00 0.00
11:53 am 11:53 Mostly Sunny 75 23.9 62 16.7 64 64 SSE 10 17 29.94 1014 10 16 0.00 0.00
12:53 pm 12:53 Mostly Sunny 76 24.4 61 16.1 60 60 S 8 13 29.94 1014 10 16 0.00 0.00
1:53 pm 13:53 Mostly Cloudy 78 25.6 60 15.6 54 54 SSE 12 19 29.93 1014 10 16 0.00 0.00
2:53 pm 14:53 Mostly Sunny 77 25 58 14.4 52 52 SSE 14 22 29.93 1014 10 16 0.00 0.00
3:53 pm 15:53 Mostly Sunny 75 23.9 56 13.3 52 52 S 12 19 29.91 1013 10 16 0.00 0.00
4:53 pm 16:53 Mostly Sunny 73 22.8 57 13.9 57 57 S 9 15 29.91 1013 10 16 0.00 0.00
5:53 pm 17:53 Mostly Sunny 73 22.8 58 14.4 59 59 S 10 17 29.92 1013 10 16 0.00 0.00
6:53 pm 18:53 Mostly Sunny 71 21.7 58 14.4 63 63 S 10 17 29.90 1012 10 16 0.00 0.00
7:53 pm 19:53 Sunny 69 20.6 56 13.3 63 63 SSW 5 7 29.91 1013 10 16 0.00 0.00
8:53 pm 20:53 Clear 66 18.9 56 13.3 70 70 SSE 5 7 29.93 1013 10 16 0.00 0.00
9:53 pm 21:53 Clear 65 18.3 56 13.3 73 73 S 5 7 29.93 1014 10 16 0.00 0.00
10:53 pm 22:53 Clear 65 18.3 57 13.9 76 76 SE 5 7 29.91 1013 10 16 0.00 0.00
11:53 pm 23:53 Partly Cloudy 64 17.8 58 14.4 81 81 VRB 3 6 29.90 1013 10 16 0.00 0.00

Powered by AerisWeather